When you browse on this site, cookies collect data to enhance your experience and personalize the content and advertising you see.
Visit our Privacy Policy to learn more. By continuing to use the site, you agree to this use of cookies and data.
  • In Romania
  • List of Countries
  • For 7 days
  • Water Temperature
  • Satellite Maps
  • Weather Map
  • Weather Widgets
  • user-avatar
    Login

    Hourly Weather Arpajon-sur-Cere

    Today, 16 July, Tuesday

    Time Temperature Precipitation Wind Pressure Humidity
    00:00 +12°C° 0 mm 1 mps 701 mmHg 85%
    01:00 +12°C° 0 mm 1 mps 701 mmHg 86%
    02:00 +12°C° 0 mm 1 mps 701 mmHg 87%
    03:00 +12°C° 0 mm 1 mps 701 mmHg 88%
    04:00 +13°C° 0 mm 1 mps 701 mmHg 84%
    05:00 +14°C° 0 mm 1 mps 702 mmHg 79%
    06:00 +14°C° 0 mm 0 mps 702 mmHg 72%
    07:00 +17°C° 0 mm 0 mps 702 mmHg 62%
    08:00 +19°C° 0 mm 0 mps 703 mmHg 53%
    09:00 +22°C° 0 mm 0 mps 703 mmHg 44%
    10:00 +25°C° 0 mm 1 mps 703 mmHg 40%
    11:00 +26°C° 0 mm 1 mps 703 mmHg 36%
    12:00 +28°C° 0 mm 1 mps 703 mmHg 31%
    13:00 +28°C° 0 mm 1 mps 703 mmHg 32%
    14:00 +28°C° 0 mm 2 mps 703 mmHg 32%
    15:00 +28°C° 0 mm 2 mps 702 mmHg 32%
    16:00 +26°C° 0 mm 2 mps 702 mmHg 38%
    17:00 +25°C° 0 mm 1 mps 702 mmHg 43%
    18:00 +24°C° 0 mm 1 mps 702 mmHg 49%
    19:00 +22°C° 0 mm 1 mps 701 mmHg 56%
    20:00 +20°C° 0 mm 1 mps 701 mmHg 63%
    21:00 +16°C° 0 mm 1 mps 701 mmHg 70%
    22:00 +16°C° 0 mm 1 mps 701 mmHg 72%
    23:00 +15°C° 0 mm 1 mps 701 mmHg 75%

    Tomorrow, 17 July, Wednesday

    Time Temperature Precipitation Wind Pressure Humidity
    00:00 +15°C° 0 mm 1 mps 701 mmHg 77%
    01:00 +15°C° 0 mm 1 mps 701 mmHg 78%
    02:00 +14°C° 0 mm 1 mps 700 mmHg 80%
    03:00 +14°C° 0 mm 1 mps 700 mmHg 82%
    04:00 +15°C° 0 mm 1 mps 700 mmHg 80%
    05:00 +15°C° 0 mm 0 mps 701 mmHg 78%
    06:00 +16°C° 0 mm 0 mps 701 mmHg 76%
    07:00 +18°C° 0 mm 0 mps 701 mmHg 67%
    08:00 +22°C° 0 mm 1 mps 702 mmHg 58%
    09:00 +24°C° 0 mm 1 mps 702 mmHg 49%
    10:00 +25°C° 0 mm 1 mps 702 mmHg 44%
    11:00 +26°C° 0 mm 2 mps 702 mmHg 40%
    12:00 +27°C° 0 mm 2 mps 702 mmHg 35%
    13:00 +28°C° 0 mm 2 mps 701 mmHg 34%
    14:00 +28°C° 0 mm 2 mps 701 mmHg 33%
    15:00 +28°C° 0 mm 3 mps 701 mmHg 32%
    16:00 +27°C° 0 mm 2 mps 701 mmHg 37%
    17:00 +26°C° 0 mm 2 mps 701 mmHg 41%
    18:00 +25°C° 0 mm 2 mps 700 mmHg 46%
    19:00 +23°C° 0 mm 1 mps 700 mmHg 54%
    20:00 +20°C° 0 mm 1 mps 700 mmHg 61%
    21:00 +18°C° 0 mm 1 mps 701 mmHg 69%
    22:00 +16°C° 0 mm 1 mps 700 mmHg 74%
    23:00 +14°C° 0 mm 0 mps 700 mmHg 79%

    Day after tomorrow, 18 July, Thursday

    Time Temperature Precipitation Wind Pressure Humidity
    00:00 +13°C° 0 mm 0 mps 700 mmHg 83%
    01:00 +13°C° 0 mm 0 mps 700 mmHg 85%
    02:00 +12°C° 0 mm 0 mps 700 mmHg 87%
    03:00 +12°C° 0 mm 0 mps 700 mmHg 89%
    04:00 +12°C° 0 mm 0 mps 700 mmHg 87%
    05:00 +13°C° 0 mm 0 mps 700 mmHg 85%
    06:00 +14°C° 0 mm 0 mps 700 mmHg 83%
    07:00 +16°C° 0 mm 1 mps 701 mmHg 74%
    08:00 +19°C° 0 mm 1 mps 701 mmHg 65%
    09:00 +20°C° 0 mm 2 mps 702 mmHg 56%
    10:00 +21°C° 0 mm 2 mps 701 mmHg 50%
    11:00 +23°C° 0 mm 2 mps 701 mmHg 44%
    12:00 +24°C° 0 mm 3 mps 701 mmHg 38%
    13:00 +24°C° 0 mm 3 mps 701 mmHg 38%
    14:00 +24°C° 0 mm 3 mps 701 mmHg 39%
    15:00 +24°C° 0 mm 3 mps 701 mmHg 40%
    16:00 +23°C° 0 mm 2 mps 701 mmHg 44%
    17:00 +23°C° 0 mm 2 mps 701 mmHg 48%
    18:00 +22°C° 0 mm 1 mps 701 mmHg 53%
    19:00 +20°C° 0 mm 1 mps 701 mmHg 61%
    20:00 +16°C° 0 mm 1 mps 701 mmHg 69%
    21:00 +14°C° 0 mm 1 mps 701 mmHg 77%
    22:00 +13°C° 0 mm 1 mps 701 mmHg 82%
    23:00 +12°C° 0 mm 0 mps 701 mmHg 86%

    19 July, Friday

    Time Temperature Precipitation Wind Pressure Humidity
    00:00 +11°C° 0 mm 0 mps 701 mmHg 90%
    01:00 +11°C° 0 mm 0 mps 701 mmHg 92%
    02:00 +10°C° 0 mm 0 mps 701 mmHg 94%
    03:00 +10°C° 0 mm 0 mps 701 mmHg 96%
    04:00 +11°C° 0 mm 0 mps 701 mmHg 93%
    05:00 +12°C° 0 mm 0 mps 701 mmHg 90%
    06:00 +13°C° 0 mm 0 mps 701 mmHg 87%
    07:00 +15°C° 0 mm 0 mps 702 mmHg 77%
    08:00 +19°C° 0 mm 1 mps 702 mmHg 67%
    09:00 +22°C° 0 mm 1 mps 703 mmHg 57%
    10:00 +23°C° 0 mm 1 mps 702 mmHg 53%
    11:00 +24°C° 0 mm 2 mps 702 mmHg 49%
    12:00 +25°C° 0 mm 2 mps 702 mmHg 44%
    13:00 +26°C° 0 mm 2 mps 702 mmHg 44%
    14:00 +26°C° 0 mm 2 mps 702 mmHg 43%
    15:00 +27°C° 0 mm 2 mps 701 mmHg 42%
    16:00 +26°C° 0 mm 2 mps 701 mmHg 47%
    17:00 +25°C° 0 mm 1 mps 701 mmHg 52%
    18:00 +24°C° 0 mm 1 mps 701 mmHg 57%
    19:00 +22°C° 0 mm 1 mps 701 mmHg 66%
    20:00 +19°C° 0 mm 1 mps 700 mmHg 75%
    21:00 +16°C° 0 mm 1 mps 700 mmHg 84%
    22:00 +16°C° 0 mm 1 mps 700 mmHg 85%
    23:00 +15°C° 0 mm 1 mps 700 mmHg 86%

    20 July, Saturday

    Time Temperature Precipitation Wind Pressure Humidity
    00:00 +15°C° 0 mm 1 mps 699 mmHg 86%
    01:00 +15°C° 0 mm 1 mps 699 mmHg 86%
    02:00 +15°C° 0 mm 1 mps 699 mmHg 86%
    03:00 +15°C° 0 mm 1 mps 699 mmHg 86%
    04:00 +15°C° 0 mm 1 mps 699 mmHg 84%
    05:00 +15°C° 0 mm 0 mps 699 mmHg 81%
    06:00 +16°C° 0 mm 0 mps 699 mmHg 79%
    07:00 +18°C° 0.5 mm 1 mps 700 mmHg 83%
    08:00 +19°C° 0.5 mm 1 mps 700 mmHg 87%
    09:00 +19°C° 0.5 mm 1 mps 700 mmHg 91%
    10:00 +21°C° 0.4 mm 1 mps 701 mmHg 82%
    11:00 +22°C° 0.4 mm 1 mps 701 mmHg 73%
    12:00 +24°C° 0.4 mm 2 mps 702 mmHg 64%
    13:00 +24°C° 0.4 mm 2 mps 702 mmHg 66%
    14:00 +24°C° 0.4 mm 2 mps 702 mmHg 69%
    15:00 +25°C° 0.4 mm 2 mps 702 mmHg 72%
    16:00 +23°C° 0.9 mm 2 mps 702 mmHg 79%
    17:00 +22°C° 0.9 mm 1 mps 702 mmHg 87%
    18:00 +21°C° 0.9 mm 1 mps 702 mmHg 94%
    19:00 +20°C° 0.1 mm 1 mps 702 mmHg 95%
    20:00 +16°C° 0.1 mm 0 mps 703 mmHg 96%
    21:00 +15°C° 0.1 mm 0 mps 703 mmHg 98%
    22:00 +15°C° 0 mm 0 mps 703 mmHg 98%
    23:00 +14°C° 0 mm 0 mps 703 mmHg 98%

    21 July, Sunday

    Time Temperature Precipitation Wind Pressure Humidity
    00:00 +14°C° 0 mm 0 mps 703 mmHg 98%
    01:00 +14°C° 0 mm 0 mps 703 mmHg 98%
    02:00 +13°C° 0 mm 0 mps 703 mmHg 97%
    03:00 +13°C° 0 mm 0 mps 703 mmHg 97%
    04:00 +14°C° 0 mm 0 mps 704 mmHg 97%
    05:00 +14°C° 0 mm 0 mps 704 mmHg 96%
    06:00 +15°C° 0 mm 0 mps 704 mmHg 96%
    07:00 +17°C° 0 mm 0 mps 705 mmHg 83%
    08:00 +21°C° 0 mm 1 mps 705 mmHg 69%
    09:00 +23°C° 0 mm 1 mps 706 mmHg 56%
    10:00 +25°C° 0 mm 1 mps 706 mmHg 48%
    11:00 +26°C° 0 mm 1 mps 706 mmHg 41%
    12:00 +28°C° 0 mm 2 mps 706 mmHg 33%
    13:00 +28°C° 0 mm 2 mps 706 mmHg 33%
    14:00 +28°C° 0 mm 2 mps 706 mmHg 32%
    15:00 +28°C° 0 mm 2 mps 705 mmHg 32%
    16:00 +27°C° 0 mm 2 mps 705 mmHg 38%
    17:00 +26°C° 0 mm 1 mps 705 mmHg 44%
    18:00 +25°C° 0 mm 1 mps 705 mmHg 50%
    19:00 +23°C° 0 mm 1 mps 705 mmHg 60%
    20:00 +20°C° 0 mm 1 mps 705 mmHg 69%
    21:00 +18°C° 0 mm 1 mps 705 mmHg 79%
    22:00 +16°C° 0 mm 1 mps 705 mmHg 81%
    23:00 +16°C° 0 mm 1 mps 704 mmHg 83%
    Show more